Enid, OK

7:26 AM CDT on May 26, 2017 (GMT -0500)
Enid Woodring Municipal

Weather History for KWDG - May, 2014

Change the Weather History Date:

Sunday, May 25, 2014

  Actual Average Record
Temperature  
Mean Temperature 70 °F -  
Max Temperature 78 °F 81 °F 98 °F (2006)
Min Temperature 62 °F 59 °F 44 °F (2002)
Cooling Degree Days 5    
Growing Degree Days 20 (Base 50)    
Moisture  
Dew Point 65 °F    
Average Humidity 88    
Maximum Humidity 100    
Minimum Humidity 57    
Precipitation  
Precipitation 0.03 in - - ()
Sea Level Pressure  
Sea Level Pressure 29.95 in    
Wind  
Wind Speed 5 mph (SE)    
Max Wind Speed 17 mph    
Max Gust Speed 23 mph    
Visibility 8 miles    
Events Rain , Thunderstorm    
Averages and records for this station are not official NWS values.
T = Trace of Precipitation, MM = Missing Value Source: NWS Daily Summary

Daily Weather History Graph

Daily Weather History Graph

Search for Another Location

Airport or City:

Trip Planner

Search our weather history database for the weather conditions in past years. The results will help you decide how hot, cold, wet, or windy it might be!

Date:

Astronomy

May. 25, 2014 Rise Set
Actual Time 6:17 AM CDT 8:38 PM CDT
Civil Twilight 5:48 AM CDT 9:08 PM CDT
Nautical Twilight 5:12 AM CDT 9:44 PM CDT
Astronomical Twilight 4:32 AM CDT 10:24 PM CDT
Moon 4:17 AM CDT (5/25) 5:45 PM CDT (5/25)
Length of Visible Light 15h 19m
Length of Day
14h 20m
Waning Crescent, 10% of the Moon is Illuminated
May 25
Waning Crescent
May 28
New
Jun 5
First Quarter
Jun 12
Full
Jun 19
Last Quarter

Hourly Weather History & Observations

Time (CDT) Temp. Dew Point Humidity Pressure Visibility Wind Dir Wind Speed Gust Speed Precip Events Conditions
12:15 AM 64.4 °F 62.6 °F 94% 29.96 in 10.0 mi Calm Calm - N/A   Clear
12:35 AM 64.4 °F 62.6 °F 94% 29.97 in 10.0 mi East 5.8 mph - N/A   Clear
12:55 AM 64.4 °F 62.6 °F 94% 29.97 in 10.0 mi East 3.5 mph - N/A   Clear
1:15 AM 64.4 °F 62.6 °F 94% 29.97 in 10.0 mi East 3.5 mph - N/A   Clear
1:35 AM 64.4 °F 62.6 °F 94% 29.97 in 10.0 mi Calm Calm - N/A   Clear
1:55 AM 64.4 °F 62.6 °F 94% 29.97 in 10.0 mi Calm Calm - N/A   Clear
2:15 AM 62.6 °F 62.6 °F 100% 29.96 in 10.0 mi East 4.6 mph - N/A   Clear
2:35 AM 62.6 °F 62.6 °F 100% 29.95 in 7.0 mi ESE 4.6 mph - N/A   Clear
2:55 AM 62.6 °F 62.6 °F 100% 29.94 in 7.0 mi SE 6.9 mph - N/A   Clear
3:15 AM 64.4 °F 64.4 °F 100% 29.95 in 5.0 mi SE 5.8 mph - N/A   Clear
3:35 AM 64.4 °F 64.4 °F 100% 29.95 in 5.0 mi SE 4.6 mph - N/A   Clear
3:55 AM 64.4 °F 64.4 °F 100% 29.96 in 4.0 mi SE 3.5 mph - N/A   Clear
4:15 AM 64.4 °F 64.4 °F 100% 29.96 in 4.0 mi Calm Calm - N/A   Scattered Clouds
4:35 AM 64.4 °F 64.4 °F 100% 29.96 in 3.0 mi SSE 3.5 mph - N/A   Mist
4:55 AM 64.4 °F 64.4 °F 100% 29.95 in 3.0 mi ESE 4.6 mph - N/A   Mist
5:15 AM 64.4 °F 64.4 °F 100% 29.95 in 4.0 mi ESE 5.8 mph - N/A   Clear
5:35 AM 64.4 °F 64.4 °F 100% 29.96 in 4.0 mi SE 4.6 mph - N/A Thunderstorm Clear
5:55 AM 64.4 °F 64.4 °F 100% 29.95 in 3.0 mi SE 6.9 mph - N/A   Mist
6:15 AM 64.4 °F 64.4 °F 100% 29.94 in 4.0 mi SE 13.8 mph - N/A   Mostly Cloudy
7:50 AM 68.0 °F 68.0 °F 100% 29.97 in 4.0 mi SSE 15.0 mph - N/A   Overcast
8:50 AM 69.8 °F 68.0 °F 94% 29.98 in 5.0 mi South 11.5 mph - N/A   Overcast
10:50 AM 77.0 °F 68.0 °F 74% 29.94 in 7.0 mi SSE 17.3 mph - N/A   Overcast
11:50 AM 78.8 °F 66.2 °F 65% 29.92 in 7.0 mi SE 17.3 mph 23.0 mph N/A   Overcast
12:50 PM 78.8 °F 66.2 °F 65% 29.96 in 7.0 mi SSE 17.3 mph - N/A   Overcast
1:50 PM 77.0 °F 69.8 °F 78% 29.97 in 7.0 mi South 15.0 mph 23.0 mph N/A   Overcast
2:50 PM 75.2 °F 68.0 °F 78% 29.95 in 10.0 mi South 10.4 mph - N/A   Overcast
3:50 PM 75.2 °F 66.2 °F 73% 29.91 in 7.0 mi South 11.5 mph - N/A   Overcast
4:59 PM 78.8 °F 62.6 °F 57% 29.92 in 10.0 mi SSW 11.5 mph 18.4 mph N/A   Overcast
5:50 PM 77.0 °F 64.4 °F 65% 29.92 in 10.0 mi SW 8.1 mph - N/A   Overcast
6:50 PM 77.0 °F 64.4 °F 65% 29.92 in 10.0 mi Calm Calm - N/A   Overcast
7:50 PM 78.8 °F 62.6 °F 57% 29.92 in 10.0 mi Calm Calm - N/A   Mostly Cloudy
8:50 PM 71.6 °F 66.2 °F 83% 29.94 in 10.0 mi East 15.0 mph - N/A   Mostly Cloudy
9:15 PM 69.8 °F 64.4 °F 83% 29.95 in 10.0 mi ENE 9.2 mph - N/A   Scattered Clouds
9:35 PM 69.8 °F 64.4 °F 83% 29.96 in 10.0 mi ENE 5.8 mph - N/A   Scattered Clouds
9:55 PM 69.8 °F 64.4 °F 83% 29.96 in 10.0 mi ENE 4.6 mph - N/A   Scattered Clouds
10:15 PM 69.8 °F 64.4 °F 83% 29.97 in 10.0 mi Calm Calm - N/A   Mostly Cloudy
10:35 PM 68.0 °F 64.4 °F 88% 29.98 in 10.0 mi Calm Calm - N/A   Mostly Cloudy
10:55 PM 68.0 °F 66.2 °F 94% 29.98 in 7.0 mi East 5.8 mph - 0.03 in Rain Heavy Rain
11:15 PM 68.0 °F 66.2 °F 94% 29.98 in 10.0 mi ESE 5.8 mph - N/A   Scattered Clouds
11:35 PM 68.0 °F 64.4 °F 88% 29.98 in 10.0 mi SSE 4.6 mph - N/A   Clear
11:55 PM 66.2 °F 64.4 °F 94% 29.98 in 7.0 mi South 3.5 mph - N/A   Clear